Terug naar catalogus

CZ-2C DEB

ActiefPO
NORAD 37732·DEBRIS·🇨🇳 China

Gelanceerd Jul 6, 2011 vanaf Jiuquan Satellite Launch Center

Loading…

Volgende Passages (komende 24 uur)

TLE

VersSource: Space-Track

Epoch: Sep 14, 2026, 13:14 UTC

1 37732U 11030C   26257.55164353  .00001039  00000-0  31822-3 0  9993
2 37732  97.9446 293.8103 0136765 227.8095 298.2041 14.38427509791242

Volg CZ-2C DEB in realtime met AllMySat

Download on the App Store